| time (UTC) | temp F | wind direction | speed knots | gust knots | rain 1hr in | rain 24hr in | rain mn in | humidity % | barometer mb |
| 20260510220532 | 60 | 212 | 7.0 | 13.0 | 0.00 | 0.00 | 0.00 | 73 | 1006.5 |
| 20260510215529 | 60 | 218 | 7.0 | 13.9 | 0.00 | 0.00 | 0.00 | 74 | 1006.6 |
| 20260510214527 | 60 | 236 | 5.2 | 17.4 | 0.00 | 0.00 | 0.00 | 74 | 1006.9 |
| 20260510213524 | 60 | 222 | 7.0 | 12.2 | 0.00 | 0.00 | 0.00 | 73 | 1007.1 |
| 20260510212522 | 60 | 229 | 9.6 | 17.4 | 0.00 | 0.00 | 0.00 | 73 | 1007.1 |
| 20260510211519 | 60 | 225 | 6.1 | 9.6 | 0.00 | 0.00 | 0.00 | 74 | 1007.2 |
| 20260510210516 | 60 | 214 | 3.5 | 6.1 | 0.00 | 0.00 | 0.00 | 74 | 1007.5 |
| 20260510205614 | 60 | 213 | 6.1 | 9.6 | 0.00 | 0.00 | 0.00 | 74 | 1007.4 |
| 20260510204611 | 60 | 181 | 3.5 | 6.1 | 0.00 | 0.00 | 0.00 | 74 | 1007.5 |
| 20260510203609 | 61 | 214 | 2.6 | 7.8 | 0.00 | 0.00 | 0.00 | 72 | 1007.1 |
| 20260510202606 | 61 | 190 | 2.6 | 6.1 | 0.00 | 0.00 | 0.00 | 73 | 1007.2 |
| 20260510201603 | 61 | 162 | 2.6 | 5.2 | 0.00 | 0.00 | 0.00 | 73 | 1007.2 |
| 20260510200601 | 61 | 175 | 2.6 | 7.0 | 0.00 | 0.00 | 0.00 | 72 | 1007.0 |
| 20260510195558 | 62 | 228 | 1.7 | 5.2 | 0.00 | 0.00 | 0.00 | 70 | 1007.0 |
| 20260510194555 | 62 | 180 | 3.5 | 7.8 | 0.00 | 0.00 | 0.00 | 71 | 1006.8 |
| 20260510193553 | 63 | 117 | 3.5 | 7.8 | 0.00 | 0.00 | 0.00 | 69 | 1006.5 |
| 20260510192550 | 63 | 145 | 3.5 | 7.8 | 0.00 | 0.00 | 0.00 | 67 | 1006.7 |
| 20260510191548 | 63 | 159 | 3.5 | 7.8 | 0.00 | 0.00 | 0.00 | 66 | 1006.7 |
| 20260510190545 | 63 | 140 | 3.5 | 7.8 | 0.00 | 0.00 | 0.00 | 65 | 1006.6 |
| 20260510185543 | 64 | 177 | 6.1 | 11.3 | 0.00 | 0.00 | 0.00 | 64 | 1006.5 |
| 20260510184540 | 64 | 135 | 4.3 | 7.8 | 0.00 | 0.00 | 0.00 | 62 | 1006.5 |
| 20260510183537 | 64 | 175 | 7.0 | 12.2 | 0.00 | 0.00 | 0.00 | 60 | 1006.3 |
| 20260510182535 | 65 | 128 | 6.1 | 12.2 | 0.00 | 0.00 | 0.00 | 57 | 1006.2 |
| 20260510181532 | 65 | 130 | 6.1 | 12.2 | 0.00 | 0.00 | 0.00 | 54 | 1006.1 |
| 20260510180530 | 66 | 129 | 7.0 | 12.2 | 0.00 | 0.00 | 0.00 | 51 | 1006.1 |
| 20260510175527 | 67 | 170 | 7.8 | 14.8 | 0.00 | 0.00 | 0.00 | 50 | 1006.0 |
| 20260510174524 | 68 | 171 | 5.2 | 11.3 | 0.00 | 0.00 | 0.00 | 50 | 1005.8 |
| 20260510173522 | 68 | 84 | 6.1 | 12.2 | 0.00 | 0.01 | 0.00 | 51 | 1005.6 |
| 20260510172519 | 68 | 108 | 7.0 | 14.8 | 0.00 | 0.01 | 0.00 | 49 | 1005.6 |
| 20260510171517 | 69 | 144 | 6.1 | 13.0 | 0.00 | 0.04 | 0.00 | 50 | 1005.4 |
| 20260510170614 | 69 | 150 | 5.2 | 9.6 | 0.00 | 0.05 | 0.00 | 50 | 1005.3 |
| 20260510165612 | 69 | 160 | 6.1 | 12.2 | 0.00 | 0.06 | 0.00 | 50 | 1005.4 |
| 20260510164609 | 69 | 114 | 7.0 | 15.6 | 0.00 | 0.08 | 0.00 | 51 | 1005.4 |
| 20260510163606 | 70 | 133 | 6.1 | 12.2 | 0.00 | 0.12 | 0.00 | 51 | 1005.2 |
| 20260510162604 | 69 | 125 | 7.8 | 13.9 | 0.00 | 0.18 | 0.00 | 51 | 1005.2 |
| 20260510161601 | 70 | 129 | 6.1 | 13.0 | 0.00 | 0.19 | 0.00 | 51 | 1005.2 |
| 20260510160558 | 70 | 136 | 7.0 | 14.8 | 0.00 | 0.20 | 0.00 | 51 | 1005.1 |
| 20260510155556 | 71 | 124 | 5.2 | 9.6 | 0.00 | 0.21 | 0.00 | 51 | 1005.3 |
| 20260510154553 | 71 | 125 | 7.0 | 14.8 | 0.00 | 0.24 | 0.00 | 51 | 1005.3 |
| 20260510153550 | 71 | 116 | 5.2 | 13.0 | 0.00 | 0.28 | 0.00 | 52 | 1005.2 |
| 20260510152548 | 71 | 143 | 6.1 | 12.2 | 0.00 | 0.31 | 0.00 | 52 | 1005.3 |
| 20260510151545 | 71 | 138 | 7.0 | 13.0 | 0.00 | 0.32 | 0.00 | 52 | 1005.5 |
| 20260510150543 | 71 | 171 | 5.2 | 12.2 | 0.00 | 0.33 | 0.00 | 52 | 1005.5 |
| 20260510145540 | 72 | 110 | 4.3 | 9.6 | 0.00 | 0.34 | 0.00 | 51 | 1005.7 |
| 20260510144537 | 72 | 131 | 5.2 | 13.0 | 0.00 | 0.35 | 0.00 | 51 | 1005.5 |
| 20260510143535 | 71 | 139 | 3.5 | 9.6 | 0.00 | 0.38 | 0.00 | 52 | 1005.7 |
| 20260510142532 | 71 | 47 | 6.1 | 14.8 | 0.00 | 0.40 | 0.00 | 54 | 1005.9 |
| 20260510141530 | 71 | 146 | 4.3 | 13.0 | 0.00 | 0.41 | 0.00 | 56 | 1005.8 |
| 20260510140527 | 70 | 159 | 5.2 | 13.9 | 0.00 | 0.43 | 0.00 | 57 | 1006.0 |
| 20260510135524 | 69 | 103 | 4.3 | 14.8 | 0.00 | 0.43 | 0.00 | 60 | 1006.1 |
| 20260510134522 | 70 | 112 | 5.2 | 11.3 | 0.00 | 0.43 | 0.00 | 60 | 1006.2 |
| 20260510133519 | 69 | 154 | 6.1 | 13.0 | 0.00 | 0.43 | 0.00 | 61 | 1006.3 |
| 20260510132516 | 70 | 87 | 4.3 | 9.6 | 0.00 | 0.43 | 0.00 | 59 | 1006.4 |
| 20260510131614 | 70 | 133 | 5.2 | 11.3 | 0.00 | 0.43 | 0.00 | 58 | 1006.5 |
| 20260510130611 | 68 | 170 | 6.1 | 11.3 | 0.00 | 0.43 | 0.00 | 60 | 1006.6 |
| 20260510125609 | 69 | 91 | 3.5 | 9.6 | 0.00 | 0.43 | 0.00 | 63 | 1006.7 |
| 20260510124606 | 69 | 122 | 4.3 | 9.6 | 0.00 | 0.43 | 0.00 | 62 | 1006.7 |
| 20260510123604 | 69 | 82 | 6.1 | 11.3 | 0.00 | 0.43 | 0.00 | 62 | 1006.8 |
| 20260510122601 | 68 | 121 | 7.0 | 18.2 | 0.00 | 0.43 | 0.00 | 67 | 1007.0 |
| 20260510121558 | 68 | 116 | 4.3 | 9.6 | 0.00 | 0.43 | 0.00 | 66 | 1007.2 |
| 20260510120556 | 69 | 130 | 4.3 | 12.2 | 0.00 | 0.43 | 0.00 | 63 | 1007.2 |
| 20260510115553 | 69 | 92 | 4.3 | 9.6 | 0.00 | 0.43 | 0.00 | 62 | 1007.1 |
| 20260510114551 | 69 | 105 | 5.2 | 13.0 | 0.00 | 0.43 | 0.00 | 63 | 1007.3 |
| 20260510113548 | 68 | 98 | 7.0 | 13.9 | 0.00 | 0.43 | 0.00 | 65 | 1007.5 |
| 20260510112545 | 68 | 124 | 6.1 | 13.0 | 0.00 | 0.43 | 0.00 | 66 | 1007.5 |
| 20260510111543 | 69 | 111 | 2.6 | 7.0 | 0.00 | 0.43 | 0.00 | 65 | 1007.4 |
| 20260510110540 | 68 | 126 | 6.1 | 12.2 | 0.00 | 0.43 | 0.00 | 67 | 1007.6 |
| 20260510105537 | 68 | 151 | 4.3 | 9.6 | 0.00 | 0.43 | 0.00 | 68 | 1007.6 |
| 20260510104535 | 67 | 156 | 6.1 | 11.3 | 0.00 | 0.43 | 0.00 | 70 | 1007.7 |
| 20260510103532 | 67 | 154 | 4.3 | 9.6 | 0.00 | 0.43 | 0.00 | 71 | 1007.8 |
| 20260510102529 | 65 | 221 | 1.7 | 7.0 | 0.00 | 0.43 | 0.00 | 75 | 1007.8 |
| 20260510101527 | 66 | 192 | 3.5 | 7.8 | 0.00 | 0.43 | 0.00 | 72 | 1007.9 |
| 20260510100524 | 66 | 164 | 3.5 | 9.6 | 0.00 | 0.43 | 0.00 | 74 | 1008.0 |
| 20260510095522 | 65 | 139 | 2.6 | 9.6 | 0.00 | 0.43 | 0.00 | 74 | 1008.0 |
| 20260510094519 | 64 | 130 | 4.3 | 9.6 | 0.00 | 0.43 | 0.00 | 75 | 1008.1 |
| 20260510093517 | 64 | 132 | 5.2 | 12.2 | 0.00 | 0.43 | 0.00 | 76 | 1008.0 |
| 20260510092614 | 63 | 135 | 4.3 | 7.0 | 0.00 | 0.43 | 0.00 | 77 | 1008.1 |
| 20260510091612 | 63 | 133 | 5.2 | 7.8 | 0.00 | 0.43 | 0.00 | 78 | 1008.2 |
| 20260510090609 | 62 | 166 | 4.3 | 9.6 | 0.00 | 0.43 | 0.00 | 80 | 1008.0 |
| 20260510085606 | 62 | 161 | 3.5 | 9.6 | 0.00 | 0.43 | 0.00 | 80 | 1008.1 |
| 20260510084604 | 61 | 126 | 4.3 | 11.3 | 0.00 | 0.43 | 0.00 | 82 | 1008.0 |
| 20260510083601 | 61 | 120 | 3.5 | 9.6 | 0.00 | 0.43 | 0.00 | 82 | 1008.1 |
| 20260510082559 | 60 | 128 | 3.5 | 7.8 | 0.00 | 0.43 | 0.00 | 83 | 1008.1 |
| 20260510081556 | 60 | 131 | 4.3 | 7.8 | 0.00 | 0.43 | 0.00 | 83 | 1008.0 |
| 20260510080553 | 59 | 124 | 6.1 | 11.3 | 0.00 | 0.43 | 0.00 | 84 | 1007.8 |
| 20260510075551 | 58 | 123 | 4.3 | 9.6 | 0.00 | 0.43 | 0.00 | 84 | 1007.9 |
| 20260510074548 | 58 | 135 | 5.2 | 9.6 | 0.00 | 0.43 | 0.00 | 84 | 1007.8 |
| 20260510073546 | 58 | 119 | 4.3 | 9.6 | 0.00 | 0.43 | 0.00 | 85 | 1007.8 |
| 20260510072543 | 58 | 172 | 5.2 | 9.6 | 0.00 | 0.43 | 0.00 | 85 | 1007.6 |
| 20260510071540 | 58 | 154 | 2.6 | 6.1 | 0.00 | 0.43 | 0.00 | 86 | 1007.6 |
| 20260510070538 | 57 | 137 | 3.5 | 7.8 | 0.00 | 0.43 | 0.00 | 85 | 1007.4 |
| 20260510065535 | 57 | 177 | 3.5 | 6.1 | 0.00 | 0.43 | 0.00 | 86 | 1007.4 |
| 20260510064533 | 57 | 144 | 1.7 | 3.5 | 0.00 | 0.43 | 0.00 | 89 | 1007.5 |
| 20260510063530 | 56 | 101 | 0.9 | 3.5 | 0.00 | 0.43 | 0.00 | 90 | 1007.5 |
| 20260510062527 | 56 | 101 | 0.9 | 1.7 | 0.00 | 0.43 | 0.00 | 91 | 1007.4 |
| 20260510061525 | 55 | 0.0 | 1.7 | 0.00 | 0.43 | 0.00 | 92 | 1007.4 | |
| 20260510060522 | 54 | 229 | 0.9 | 1.7 | 0.00 | 0.43 | 0.00 | 94 | 1007.3 |
| 20260510055520 | 53 | 218 | 0.0 | 1.7 | 0.00 | 0.43 | 0.00 | 95 | 1007.3 |
| 20260510054517 | 52 | 158 | 0.0 | 1.7 | 0.00 | 0.43 | 0.00 | 95 | 1007.4 |
| 20260510053615 | 52 | 0.0 | 1.7 | 0.00 | 0.43 | 0.00 | 95 | 1007.4 | |
| 20260510052612 | 52 | 152 | 0.0 | 1.7 | 0.00 | 0.43 | 0.00 | 95 | 1007.3 |
| 20260510050607 | 52 | 163 | 0.9 | 3.5 | 0.00 | 0.43 | 0.00 | 95 | 1007.1 |
| 20260510045604 | 51 | 215 | 0.9 | 1.7 | 0.00 | 0.43 | 0.00 | 95 | 1007.1 |
| 20260510044602 | 51 | 227 | 1.7 | 5.2 | 0.00 | 0.43 | 0.00 | 95 | 1007.3 |
| 20260510043559 | 52 | 234 | 0.9 | 1.7 | 0.00 | 0.43 | 0.00 | 95 | 1007.3 |
| 20260510042556 | 52 | 240 | 0.0 | 1.7 | 0.00 | 0.43 | 0.00 | 95 | 1007.4 |
| 20260510041554 | 52 | 229 | 1.7 | 3.5 | 0.00 | 0.43 | 0.00 | 95 | 1007.3 |
| 20260510040551 | 52 | 227 | 0.9 | 3.5 | 0.00 | 0.43 | 0.00 | 96 | 1007.3 |
| 20260510035548 | 52 | 232 | 1.7 | 3.5 | 0.00 | 0.43 | 0.00 | 96 | 1007.4 |
| 20260510034546 | 52 | 226 | 0.9 | 3.5 | 0.00 | 0.43 | 0.00 | 96 | 1007.5 |
| 20260510033543 | 52 | 235 | 0.9 | 1.7 | 0.00 | 0.43 | 0.00 | 96 | 1007.4 |
| 20260510032541 | 52 | 0.0 | 1.7 | 0.00 | 0.43 | 0.00 | 96 | 1007.5 | |
| 20260510031538 | 52 | 0.0 | 0.0 | 0.00 | 0.43 | 0.00 | 95 | 1007.4 | |
| 20260510030536 | 52 | 0.0 | 0.0 | 0.00 | 0.43 | 0.00 | 95 | 1007.5 | |
| 20260510025533 | 52 | 0.0 | 1.7 | 0.00 | 0.43 | 0.00 | 95 | 1007.7 | |
| 20260510024530 | 53 | 276 | 0.9 | 1.7 | 0.00 | 0.43 | 0.00 | 95 | 1007.6 |
| 20260510023528 | 52 | 0.0 | 1.7 | 0.00 | 0.43 | 0.00 | 95 | 1007.9 | |
| 20260510022525 | 52 | 180 | 0.0 | 1.7 | 0.00 | 0.43 | 0.00 | 95 | 1008.0 |
| 20260510021523 | 53 | 189 | 0.9 | 1.7 | 0.00 | 0.43 | 0.00 | 95 | 1007.8 |
| 20260510020520 | 53 | 180 | 0.9 | 3.5 | 0.00 | 0.43 | 0.00 | 94 | 1007.9 |
| 20260510015517 | 53 | 205 | 0.9 | 3.5 | 0.00 | 0.43 | 0.00 | 94 | 1007.7 |
| 20260510014515 | 53 | 194 | 0.9 | 1.7 | 0.00 | 0.43 | 0.00 | 93 | 1007.7 |
| 20260510013612 | 53 | 213 | 0.9 | 1.7 | 0.00 | 0.43 | 0.00 | 93 | 1007.7 |
| 20260510012610 | 53 | 222 | 0.9 | 1.7 | 0.00 | 0.43 | 0.00 | 94 | 1007.6 |
| 20260510011607 | 54 | 251 | 0.9 | 1.7 | 0.00 | 0.43 | 0.00 | 94 | 1007.8 |
| 20260510010604 | 53 | 225 | 0.0 | 1.7 | 0.00 | 0.43 | 0.00 | 95 | 1007.6 |
| 20260510005602 | 53 | 256 | 0.9 | 1.7 | 0.00 | 0.43 | 0.00 | 95 | 1007.9 |
| 20260510004559 | 53 | 270 | 0.0 | 1.7 | 0.00 | 0.43 | 0.00 | 95 | 1007.9 |
| 20260510003557 | 53 | 229 | 0.9 | 1.7 | 0.00 | 0.43 | 0.00 | 95 | 1008.2 |
| 20260510002554 | 53 | 193 | 0.9 | 1.7 | 0.00 | 0.43 | 0.00 | 94 | 1008.1 |
| 20260510001551 | 54 | 203 | 0.0 | 1.7 | 0.00 | 0.43 | 0.00 | 94 | 1008.1 |
| 20260510000549 | 54 | 225 | 1.7 | 3.5 | 0.00 | 0.43 | 0.00 | 95 | 1008.4 |
| 20260509235546 | 54 | 225 | 2.6 | 3.5 | 0.00 | 0.43 | 0.43 | 95 | 1008.9 |
| 20260509234544 | 54 | 203 | 0.9 | 3.5 | 0.00 | 0.43 | 0.43 | 95 | 1008.8 |
| 20260509233541 | 55 | 230 | 1.7 | 3.5 | 0.00 | 0.43 | 0.43 | 95 | 1008.8 |
| 20260509232539 | 55 | 229 | 2.6 | 3.5 | 0.00 | 0.43 | 0.43 | 95 | 1008.8 |
| 20260509231536 | 55 | 206 | 1.7 | 3.5 | 0.00 | 0.43 | 0.43 | 95 | 1008.9 |
| 20260509230533 | 55 | 203 | 1.7 | 3.5 | 0.00 | 0.43 | 0.43 | 96 | 1008.9 |
| 20260509225531 | 55 | 232 | 1.7 | 3.5 | 0.00 | 0.43 | 0.43 | 96 | 1009.0 |
| 20260509224528 | 55 | 237 | 1.7 | 3.5 | 0.00 | 0.43 | 0.43 | 96 | 1009.0 |
| 20260509223525 | 55 | 170 | 1.7 | 3.5 | 0.00 | 0.43 | 0.43 | 96 | 1009.0 |
| 20260509222523 | 55 | 226 | 0.9 | 3.5 | 0.00 | 0.43 | 0.43 | 96 | 1008.9 |
| 20260509221520 | 55 | 212 | 1.7 | 3.5 | 0.00 | 0.43 | 0.43 | 96 | 1008.9 |